KF7SOJ Weather Reports


Display with metric or nautical units.
time (UTC)temp
F
wind
direction
speed
MPH
gust
MPH
rain 1hr
in
rain 24hr
in
rain mn
in
humidity
%
barometer
mb
20260502185809 69 52 10.0 15.0 0.00 0.00 0.00 30 933.4
20260502185305 70 62 12.0 14.0 0.00 0.00 0.00 28 933.4
20260502184802 71 4 10.0 14.0 0.00 0.00 0.00 27 933.3
20260502184257 70 28 9.0 13.0 0.00 0.00 0.00 26 933.6
20260502183754 70 355 6.0 11.0 0.00 0.00 0.00 26 933.6
20260502183250 70 62 6.0 13.0 0.00 0.00 0.00 26 933.3
20260502182745 70 3 6.0 13.0 0.00 0.00 0.00 28 933.4
20260502182241 71 26 6.0 13.0 0.00 0.00 0.00 27 933.6
20260502181738 70 28 14.0 15.0 0.00 0.00 0.00 27 933.4
20260502181237 70 29 13.0 15.0 0.00 0.00 0.00 27 933.5
20260502180734 70 11 12.0 12.0 0.00 0.00 0.00 28 933.6
20260502180232 70 4 11.0 12.0 0.00 0.00 0.00 27 933.6
20260502170156 70 58 9.0 16.0 0.00 0.00 0.00 25 933.6
20260502164142 69 254 6.0 14.0 0.00 0.00 0.00 24 933.5
20260502163638 68 279 6.0 9.0 0.00 0.00 0.00 25 933.6
20260502163135 68 248 7.0 14.0 0.00 0.00 0.00 25 933.6
20260502162632 68 271 8.0 14.0 0.00 0.00 0.00 25 933.7
20260502162129 68 255 7.0 14.0 0.00 0.00 0.00 23 933.7
20260502161626 68 231 14.0 18.0 0.00 0.00 0.00 24 933.6
20260502161123 67 253 13.0 19.0 0.00 0.00 0.00 25 933.6
20260502160621 68 251 16.0 20.0 0.00 0.00 0.00 24 933.3
20260502160120 67 243 11.0 19.0 0.00 0.00 0.00 27 933.3
20260502152034 64 237 12.0 21.0 0.00 0.00 0.00 27 933.5
20260502151531 64 227 20.0 20.0 0.00 0.00 0.00 25 933.4
20260502151028 64 225 17.0 21.0 0.00 0.00 0.00 26 933.5
20260502150525 63 226 20.0 22.0 0.00 0.00 0.00 26 933.4
20260502130410 55 281 5.0 15.0 0.00 0.00 0.00 31 933.0
20260502123353 52 232 6.0 9.0 0.00 0.00 0.00 34 933.0
20260502122850 52 234 11.0 13.0 0.00 0.00 0.00 34 932.6
20260502122346 52 247 11.0 17.0 0.00 0.00 0.00 33 932.8
20260502121844 51 247 11.0 20.0 0.00 0.00 0.00 34 932.5
20260502121341 51 233 15.0 19.0 0.00 0.00 0.00 34 932.7
20260502120839 51 243 14.0 17.0 0.00 0.00 0.00 34 932.7
20260502120334 52 246 9.0 16.0 0.00 0.00 0.00 33 932.8
20260502115832 53 248 9.0 18.0 0.00 0.00 0.00 32 932.6
20260502115329 53 245 14.0 18.0 0.00 0.00 0.00 32 932.6
20260502114826 53 253 13.0 19.0 0.00 0.00 0.00 32 932.6
20260502114322 52 257 11.0 17.0 0.00 0.00 0.00 33 932.7
20260502113819 52 250 12.0 16.0 0.00 0.00 0.00 33 932.6
20260502113317 52 245 12.0 18.0 0.00 0.00 0.00 33 932.7
20260502112815 52 247 12.0 16.0 0.00 0.00 0.00 33 932.6
20260502112312 49 257 6.0 13.0 0.00 0.00 0.00 38 932.9
20260502111809 48 276 6.0 9.0 0.00 0.00 0.00 39 932.8
20260502111307 47 291 3.0 4.0 0.00 0.00 0.00 42 933.0
20260502110804 48 353 6.0 8.0 0.00 0.00 0.00 42 933.1
20260502110302 51 349 4.0 6.0 0.00 0.00 0.00 36 932.9
20260502105800 51 252 9.0 12.0 0.00 0.00 0.00 35 932.5
20260502105256 51 244 9.0 13.0 0.00 0.00 0.00 35 932.4
20260502104754 51 252 11.0 14.0 0.00 0.00 0.00 35 932.4
20260502104251 51 242 10.0 15.0 0.00 0.00 0.00 35 932.4
20260502103748 52 246 13.0 17.0 0.00 0.00 0.00 34 932.3
20260502103246 52 246 11.0 16.0 0.00 0.00 0.00 34 932.3
20260502102743 52 251 13.0 15.0 0.00 0.00 0.00 34 932.1
20260502102239 52 249 12.0 15.0 0.00 0.00 0.00 34 932.2
20260502101737 53 255 10.0 15.0 0.00 0.00 0.00 33 932.1
20260502101235 53 249 13.0 20.0 0.00 0.00 0.00 33 932.1
20260502100733 54 245 13.0 19.0 0.00 0.00 0.00 32 932.1
20260502100231 53 253 12.0 16.0 0.00 0.00 0.00 33 932.1
20260502091205 53 245 6.0 14.0 0.00 0.00 0.00 35 932.1
20260502090703 53 253 7.0 14.0 0.00 0.00 0.00 35 932.3
20260502090200 53 255 9.0 13.0 0.00 0.00 0.00 35 932.2
20260502071101 54 236 6.0 7.0 0.00 0.00 0.00 33 932.7
20260502070559 54 241 6.0 8.0 0.00 0.00 0.00 32 932.8
20260502070057 52 246 5.0 7.0 0.00 0.00 0.00 34 932.8
20260502065555 50 212 0.0 2.0 0.00 0.00 0.00 38 932.8
20260502065052 51 144 0.0 2.0 0.00 0.00 0.00 37 932.9
20260502064551 51 209 1.0 2.0 0.00 0.00 0.00 37 932.8
20260502064047 51 165 2.0 2.0 0.00 0.00 0.00 37 932.9
20260502063545 51 130 2.0 3.0 0.00 0.00 0.00 37 932.8
20260502063043 52 137 3.0 3.0 0.00 0.00 0.00 36 932.8
20260502062540 55 196 2.0 4.0 0.00 0.00 0.00 33 932.8
20260502062038 54 259 5.0 5.0 0.00 0.00 0.00 33 932.9
20260502061536 54 245 3.0 6.0 0.00 0.00 0.00 34 932.9
20260502061032 54 226 4.0 5.0 0.00 0.00 0.00 35 932.6
20260502060527 54 238 7.0 8.0 0.00 0.00 0.00 34 932.9
20260502060025 54 233 8.0 9.0 0.00 0.00 0.00 35 932.8
20260502055522 54 236 7.0 10.0 0.00 0.00 0.00 36 932.7
20260502055021 53 230 7.0 8.0 0.00 0.00 0.00 37 932.6
20260502054519 54 225 5.0 6.0 0.00 0.00 0.00 37 932.7
20260502054016 54 238 4.0 5.0 0.00 0.00 0.00 37 932.7
20260502053513 54 227 2.0 6.0 0.00 0.00 0.00 37 932.7
20260502053011 53 237 4.0 5.0 0.00 0.00 0.00 38 932.8
20260502052509 53 233 3.0 6.0 0.00 0.00 0.00 39 932.9
20260502052007 52 228 5.0 6.0 0.00 0.00 0.00 41 932.7
20260502051504 52 201 3.0 4.0 0.00 0.00 0.00 42 932.8
20260502051001 52 192 2.0 4.0 0.00 0.00 0.00 41 932.8
20260502050457 53 221 4.0 5.0 0.00 0.00 0.00 41 932.8
20260502045955 54 196 3.0 5.0 0.00 0.00 0.00 39 932.8
20260502045452 54 183 3.0 3.0 0.00 0.00 0.00 39 932.7
20260502044949 54 185 2.0 3.0 0.00 0.00 0.00 40 932.7
20260502044444 54 197 3.0 4.0 0.00 0.00 0.00 39 932.9
20260502043941 55 191 3.0 3.0 0.00 0.00 0.00 40 932.8
20260502043439 54 218 5.0 7.0 0.00 0.00 0.00 41 932.7
20260502042938 55 206 4.0 6.0 0.00 0.00 0.00 40 932.8
20260502042436 55 199 4.0 6.0 0.00 0.00 0.00 40 932.6
20260502041933 55 212 6.0 7.0 0.00 0.00 0.00 39 932.6
20260502041431 56 204 4.0 7.0 0.00 0.00 0.00 38 932.7
20260502040927 57 202 5.0 6.0 0.00 0.00 0.00 37 932.8
20260502040424 56 208 4.0 10.0 0.00 0.00 0.00 39 932.8
20260502035920 57 221 7.0 9.0 0.00 0.00 0.00 37 932.8
20260502035417 58 209 6.0 8.0 0.00 0.00 0.00 35 932.6
20260502034915 58 210 6.0 8.0 0.00 0.00 0.00 35 932.7
20260502034413 58 201 5.0 6.0 0.00 0.00 0.00 35 932.7
20260502033911 58 205 4.0 7.0 0.00 0.00 0.00 35 932.8
20260502033408 56 205 6.0 6.0 0.00 0.00 0.00 36 932.7
20260502032905 57 200 2.0 4.0 0.00 0.00 0.00 35 932.6
20260502032401 58 253 2.0 3.0 0.00 0.00 0.00 33 932.6
20260502031859 59 226 2.0 2.0 0.00 0.00 0.00 30 932.6
20260502031357 60 223 1.0 2.0 0.00 0.00 0.00 29 932.6
20260502030855 60 131 4.0 5.0 0.00 0.00 0.00 29 932.4
20260502030353 60 108 6.0 6.0 0.00 0.00 0.00 29 932.4
20260502025850 61 236 4.0 4.0 0.00 0.00 0.00 27 932.3
20260502025347 61 237 4.0 6.0 0.00 0.00 0.00 27 932.5
20260502024845 62 235 4.0 6.0 0.00 0.00 0.00 26 932.3
20260502024343 63 246 4.0 6.0 0.00 0.00 0.00 25 932.2
20260502023840 64 244 5.0 6.0 0.00 0.00 0.00 25 932.2
20260502023338 63 239 6.0 7.0 0.00 0.00 0.00 27 932.2
20260502022836 63 242 6.0 8.0 0.00 0.00 0.00 28 932.4
20260502022331 64 246 5.0 8.0 0.00 0.00 0.00 28 932.4
20260502021829 64 244 6.0 8.0 0.00 0.00 0.00 27 932.5
20260502021326 65 243 4.0 6.0 0.00 0.00 0.00 27 932.5
20260502020823 65 245 6.0 7.0 0.00 0.00 0.00 27 932.5
20260502020321 65 242 4.0 6.0 0.00 0.00 0.00 27 932.4
20260502015818 66 243 5.0 5.0 0.00 0.00 0.00 26 932.5
20260502015314 66 245 4.0 6.0 0.00 0.00 0.00 27 932.5
20260502014812 66 243 5.0 6.0 0.00 0.00 0.00 26 932.4
20260502014309 67 251 4.0 5.0 0.00 0.00 0.00 26 932.3
20260502013805 68 246 2.0 5.0 0.00 0.00 0.00 27 932.4
20260502013300 68 244 4.0 5.0 0.00 0.00 0.00 26 932.4
20260502012757 69 238 4.0 5.0 0.00 0.00 0.00 25 932.5
20260502012255 69 229 4.0 4.0 0.00 0.00 0.00 25 932.5
20260502011752 70 239 3.0 5.0 0.00 0.00 0.00 24 932.4
20260502011248 70 238 7.0 7.0 0.00 0.00 0.00 22 932.4
20260502010746 70 249 5.0 8.0 0.00 0.00 0.00 21 932.5
20260502010242 72 244 4.0 4.0 0.00 0.00 0.00 20 932.5
20260502005739 72 245 5.0 7.0 0.00 0.00 0.00 18 932.5
20260502005237 73 219 3.0 5.0 0.00 0.00 0.00 18 932.6
20260502004733 73 232 2.0 3.0 0.00 0.00 0.00 17 932.6
20260502004230 74 235 5.0 5.0 0.00 0.00 0.00 17 932.5
20260502003728 74 232 5.0 5.0 0.00 0.00 0.00 16 932.5
20260502003225 74 344 4.0 5.0 0.00 0.00 0.00 15 932.6
20260502002720 75 330 2.0 4.0 0.00 0.00 0.00 18 932.5
20260502002218 74 19 4.0 4.0 0.00 0.00 0.00 16 932.5
20260502001715 73 346 3.0 6.0 0.00 0.00 0.00 16 932.6
20260502001213 74 18 4.0 6.0 0.00 0.00 0.00 18 932.6
20260502000710 75 244 2.0 5.0 0.00 0.00 0.00 17 932.6
20260502000211 76 350 0.0 2.0 0.00 0.00 0.00 18 932.7
20260501235704 74 222 2.0 2.0 0.00 0.00 0.00 18 932.9
20260501235200 73 225 6.0 8.0 0.00 0.00 0.00 16 932.6
20260501234655 73 236 5.0 8.0 0.00 0.00 0.00 18 932.8
20260501234153 73 256 6.0 9.0 0.00 0.00 0.00 17 932.7
20260501233651 73 239 12.0 13.0 0.00 0.00 0.00 17 932.8
20260501233148 73 249 11.0 12.0 0.00 0.00 0.00 16 932.9
20260501232644 74 253 6.0 9.0 0.00 0.00 0.00 17 932.9
20260501232142 75 243 9.0 10.0 0.00 0.00 0.00 17 932.8
20260501231639 74 37 0.0 4.0 0.00 0.00 0.00 18 932.9
20260501231137 73 345 5.0 8.0 0.00 0.00 0.00 18 932.9
20260501230635 73 358 4.0 8.0 0.00 0.00 0.00 18 933.0
20260501230133 74 346 6.0 7.0 0.00 0.00 0.00 17 932.8
20260501225630 74 250 6.0 9.0 0.00 0.00 0.00 17 932.9
20260501225126 74 6 3.0 8.0 0.00 0.00 0.00 16 932.9
20260501224624 74 231 3.0 5.0 0.00 0.00 0.00 15 932.8
20260501224121 74 184 2.0 5.0 0.00 0.00 0.00 16 933.0
20260501223617 75 299 3.0 5.0 0.00 0.00 0.00 17 932.9
20260501223114 73 347 1.0 3.0 0.00 0.00 0.00 15 933.1
20260501222610 74 266 7.0 8.0 0.00 0.00 0.00 16 933.0
20260501222107 73 269 3.0 9.0 0.00 0.00 0.00 17 933.1
20260501221604 74 276 10.0 10.0 0.00 0.00 0.00 16 933.2
20260501221101 74 282 5.0 9.0 0.00 0.00 0.00 18 933.4
20260501220559 73 247 6.0 7.0 0.00 0.00 0.00 18 933.3
20260501220055 73 2 4.0 7.0 0.00 0.00 0.00 18 933.4
20260501215552 73 312 4.0 9.0 0.00 0.00 0.00 18 933.3
20260501215047 74 273 8.0 10.0 0.00 0.00 0.00 17 933.5
20260501214542 73 275 2.0 7.0 0.00 0.00 0.00 16 933.4
20260501214038 73 314 5.0 8.0 0.00 0.00 0.00 19 933.6
20260501213536 74 110 2.0 5.0 0.00 0.00 0.00 16 933.5
20260501213032 72 27 0.0 5.0 0.00 0.00 0.00 22 933.6
20260501212528 73 356 4.0 8.0 0.00 0.00 0.00 18 933.7
20260501212025 72 255 7.0 10.0 0.00 0.00 0.00 19 933.6
20260501211522 71 226 9.0 10.0 0.00 0.00 0.00 18 933.7
20260501211020 72 82 0.0 6.0 0.00 0.00 0.00 18 933.7
20260501210516 72 353 2.0 11.0 0.00 0.00 0.00 17 934.0
20260501210013 73 250 5.0 8.0 0.00 0.00 0.00 17 933.8
20260501205510 72 262 3.0 8.0 0.00 0.00 0.00 19 933.9
20260501205008 71 217 6.0 7.0 0.00 0.00 0.00 19 934.0
20260501204503 72 333 3.0 8.0 0.00 0.00 0.00 20 934.0
20260501203959 71 281 3.0 9.0 0.00 0.00 0.00 19 933.8
20260501203456 71 14 6.0 6.0 0.00 0.00 0.00 20 933.9
20260501202954 71 39 6.0 9.0 0.00 0.00 0.00 18 933.9
20260501202450 72 26 5.0 7.0 0.00 0.00 0.00 18 934.0
20260501201946 72 2 4.0 6.0 0.00 0.00 0.00 17 934.0
20260501201444 72 296 3.0 10.0 0.00 0.00 0.00 22 933.9
20260501200941 72 329 4.0 12.0 0.00 0.00 0.00 20 934.0
20260501200438 71 16 2.0 6.0 0.00 0.00 0.00 18 934.3
20260501195935 70 88 3.0 5.0 0.00 0.00 0.00 22 934.2
20260501195432 70 250 4.0 8.0 0.00 0.00 0.00 18 934.1
20260501194927 70 301 3.0 8.0 0.00 0.00 0.00 19 934.1
20260501194423 71 347 4.0 8.0 0.00 0.00 0.00 18 934.2
20260501193919 71 355 5.0 8.0 0.00 0.00 0.00 22 934.3
20260501193418 70 78 0.0 4.0 0.00 0.00 0.00 20 934.2
20260501192915 70 299 5.0 11.0 0.00 0.00 0.00 21 934.4
20260501192412 69 13 7.0 12.0 0.00 0.00 0.00 21 934.3
20260501191909 69 43 9.0 10.0 0.00 0.00 0.00 21 934.2
20260501191406 69 11 11.0 12.0 0.00 0.00 0.00 22 934.4
20260501190903 69 341 5.0 5.0 0.00 0.00 0.00 21 934.4
20260501190359 70 297 5.0 5.0 0.00 0.00 0.00 20 934.6